Regional Weather Roundup
Issued by NWS

Home | Current Version | Previous Version | Text Only | Print | Product List | Glossary Off
Versions: 1 2 3 4 5 6 7 8 9 10 11 12 13 14 15 16 17 18 19 20 21 22 23 24 25 26 27 28 29 30 31 32 33 34 35 36 37 38 39 40 41 42 43 44 45 46 47 48 49 50

000
ASUS43 KMPX 041510
RWRMN
WEATHER ROUNDUP FOR MINNESOTA
NATIONAL WEATHER SERVICE TWIN CITIES/CHANHASSEN MN
1000 AM CDT FRI SEP 04 2015


NOTE: "FAIR" INDICATES FEW OR NO CLOUDS BELOW 12,000 FEET WITH NO
SIGNIFICANT WEATHER AND/OR OBSTRUCTIONS TO VISIBILITY. N/A MEANS
CURRENT SKY AND/OR WEATHER CONDITIONS ARE NOT AVAILABLE.

MNZ060>063-068>070-041600-
   Twin Cities Metro

CITY           SKY/WX    TMP DP  RH WIND       PRES   REMARKS
TWIN CITIES    PTSUNNY   74  69  85 SE13      29.94S
ST PAUL        SUNNY     76  69  79 SE14      29.95S
CRYSTAL        MOSUNNY   77  69  76 SE13      29.92S
LAKEVILLE      PTSUNNY   75  72  88 SE6       29.95R
EDEN PRAIRIE   PTSUNNY   78  71  79 SE10      29.93R
SOUTH ST PAUL  SUNNY     76  68  74 S7        29.95R
LAKE ELMO      FAIR      75  70  83 SE10      29.97S
$$
MNZ001>005-007-008-013>017-022>024-027-028-041600-
   Northwest Minnesota

CITY           SKY/WX    TMP DP  RH WIND       PRES   REMARKS
BEMIDJI        CLOUDY    68  66  92 SE13      29.87F
HALLOCK        MOSUNNY   79  72  78 SE9       29.78S
ROSEAU         CLOUDY    72  66  83 E7        29.85R
WARROAD        CLOUDY    70  64  83 E8        29.88R
THIEF RVR FALL SUNNY     75  70  83 SE14      29.81R
CROOKSTON      PTSUNNY   77  72  83 SE16      29.78F
FOSSTON        SUNNY     73  66  78 SE10      29.82S
DETROIT LAKES  CLOUDY    73  68  83 SE16      29.84S
MOORHEAD       PTSUNNY   81  72  74 SE15      29.77F
PARK RAPIDS    CLOUDY    72  67  84 SE18      29.88S
MAHNOMEN       CLOUDY    74  69  83 S12       29.82R
$$
MNZ006-009>011-018-025>026-041600-
   North Central Minnesota

CITY           SKY/WX    TMP DP  RH WIND       PRES   REMARKS
BAUDETTE       CLOUDY    70  64  81 SE13G20   29.89R
FLAG ISLAND    CLOUDY    68  63  83 SE12      29.88R
INTL FALLS     CLOUDY    72  64  76 SE12      29.95R
WASKISH        SUNNY     73  68  83 SE14      29.87S
BIG FORK       CLOUDY    70  64  83 SE7       29.94S
LONGVILLE      CLOUDY    70  66  88 SE7       29.91F
GRAND RAPIDS     N/A     70  63  78 SE9G20    29.95S
CRANE LAKE     MOSUNNY   70  63  78 SE7       30.00R
ORR            MOSUNNY   72  61  68 SE5       29.95S
COOK           MOSUNNY   72  63  73 SE6       29.98S
WALKER         CLOUDY    69  65  90 SE7       29.89S
$$
MNZ012-019>021-037-041600-
   Northeast Minnesota

CITY           SKY/WX    TMP DP  RH WIND       PRES   REMARKS
DULUTH         MOSUNNY   68  61  78 SE12      30.01S
ELY            SUNNY     73  61  64 SE9       30.01S
HIBBING        CLOUDY    70  62  76 SE9G18    29.98S
EVELETH        PTSUNNY   72  63  73 SE13      30.00S
DULUTH HARBOR  CLOUDY    61  59  94 E9        30.01S THUNDER
TWO HARBORS    SUNNY     73  64  73 E6        30.00S
SILVER BAY     SUNNY     70  63  78 NE6       30.02S
GRAND MARAIS     N/A     63  56  78 NE7       30.05S
G MARAIS ARPRT SUNNY     68  59  73 E7        30.08S
$$
MNZ029>031-032-039>041-046>048-054>057-064-041600-
   West Central Minnesota

CITY           SKY/WX    TMP DP  RH WIND       PRES   REMARKS
FERGUS FALLS   MOSUNNY   79  72  78 SE16      29.80S
WHEATON        PTSUNNY   75  70  83 S13       29.82R
MORRIS         PTSUNNY   79  72  78 S13       29.82S
ALEXANDRIA     MOSUNNY   78  71  79 SE15      29.87F
ELBOW LAKE     FAIR      78  71  79 SE13G22   29.83R
WADENA         CLOUDY    70  68  94 SE14      29.87S FOG
GLENWOOD       MOSUNNY   79  72  78 SE13G20   29.87F
APPLETON       PTSUNNY   81  68  65 S12       29.83R
BENSON         MOSUNNY   81  68  65 S12       29.84S
ORTONVILLE     PTSUNNY   77  70  78 S8        29.82S
MADISON        LGT RAIN  77  70  78 S6        29.84R
WILLMAR        FAIR      79  72  78 S10       29.88S
$$
MNZ033>034-036-042>043-049>051-058-059-041600-
   Central Minnesota

CITY           SKY/WX    TMP DP  RH WIND       PRES   REMARKS
ST CLOUD       MOSUNNY   76  70  82 SE14      29.91R
SAUK CENTRE    FAIR      77  71  82 SE13      29.88F
PAYNESVILLE    SUNNY     77  71  82 E10       29.89S
AITKIN         MOSUNNY   75  66  73 SE14      29.92S
PINE RIVER     CLOUDY    72  66  83 SE9       29.93S
BRAINERD       MOSUNNY   74  67  78 SE12      29.91R
STAPLES        CLOUDY    70  66  88 SE10      29.88S
LONG PRAIRIE   CLOUDY    73  70  88 SE9       29.89S
LITTLE FALLS   CLOUDY    73  66  78 SE12      29.90S
LITCHFIELD     SUNNY     81  73  78 SE8G16    29.90S
BUFFALO        SUNNY     77  69  77 SE12      29.93S
MAPLE LAKE     SUNNY     79  73  82 SE8       29.92S
$$
MNZ037-044-045-052-053-041600-
   East Central Minnesota

CITY           SKY/WX    TMP DP  RH WIND       PRES   REMARKS
PRINCETON      SUNNY     77  70  78 SE10      29.93R
MORA           MOSUNNY   73  64  73 SE10      29.96S
CAMBRIDGE      SUNNY     77  64  65 SE7       29.92S
RUSH CITY      SUNNY     75  68  77 SE10      29.95S
MOOSE LAKE     SUNNY     70  63  78 CALM      29.96S
HINCKLEY       FAIR      75  68  78 SE7       29.96S
CLOQUET        CLOUDY    66  61  82 E9        29.99S
MCGREGOR       CLOUDY    70  64  83 SE9G16    29.96R
$$
MNZ071>073-080-081-089-090-097-098-041600-
   Southwest Minnesota

CITY           SKY/WX    TMP DP  RH WIND       PRES   REMARKS
MONTEVIDEO     MOSUNNY   82  72  69 SW12      29.86R
GRANITE FALLS  MOSUNNY   78  71  78 S10       29.86S
CANBY          PTSUNNY   78  67  69 S6        29.86R
MARSHALL       PTSUNNY   79  66  65 SW15G22   29.86R
REDWOOD FALLS  SUNNY     80  70  71 S14       29.85F
OLIVIA         SUNNY     77  68  73 S12G17    29.86S
PIPESTONE      PTSUNNY   75  68  78 S9        29.87F
WINDOM         MOSUNNY   81  68  65 S9        29.88F
WORTHINGTON    PTSUNNY   75  66  73 S13       29.89S
JACKSON        MOSUNNY   79  70  73 S13       29.90F
TRACY          PTSUNNY   78  71  78 S9        29.87R
SLAYTON        PTSUNNY   76  70  81 S9        29.89S
$$
MNZ065>067-074>077-082>085-091>093-041600-
   South Central Minnesota

CITY           SKY/WX    TMP DP  RH WIND       PRES   REMARKS
MANKATO        SUNNY     79  72  78 S10       29.91F
NEW ULM        SUNNY     79  72  78 S10       29.88F
ST JAMES       SUNNY     81  72  74 S9        29.89F
FAIRMONT       SUNNY     79  66  65 S10       29.91S
GLENCOE        SUNNY     81  73  78 SE10      29.90F
FARIBAULT      SUNNY     81  72  74 S9        29.96R
OWATONNA       SUNNY     79  70  73 S10G16    29.96S
WASECA         SUNNY     79  70  73 SE8       29.95F
ALBERT LEA     SUNNY     79  72  78 S8        29.97S
$$
MNZ078>079-086>088-094>096-041600-
   Southeast Minnesota

CITY           SKY/WX    TMP DP  RH WIND       PRES   REMARKS
ROCHESTER      MOSUNNY   75  71  87 S8        30.00S
RED WING       SUNNY     77  66  69 SE14      29.96S
STANTON        MOSUNNY   77  70  80 S5        29.95R
DODGE CENTER   MOSUNNY   75  72  88 S10       29.99R
WINONA         SUNNY     77  66  69 SE8       30.00R
AUSTIN         SUNNY     77  72  83 SE5       29.99R
PRESTON        SUNNY     74  69  81 SE7       30.01S
$$
ABBREVIATIONS USED IN REMARKS
   TC - TEMPERATURES IN CELSIUS
  WCI - WIND CHILL INDEX
   HX - HEAT INDEX
  VSB - VISIBILITY
$$



USA.gov is the U.S. government's official web portal to all federal, state and local government web resources and services.